Bernard A — TCWN3 — position and weather

sailwx.info

Track history (hours):
 
Tides and Currents Weather Stations Pressure Air Temp Water Temp Dewpoint Dewpoint Depression Visibility Wind Speed Wind Dir Waves Ship Positions

Bernard A

Last reported at 2014-Jul-26 11:16 UTC. Time now 2014-Jul-28 20:32 UTC.
Position N 40°44' E 029°42'.

Length 184 m; draft 8.8 m.

Type: Ship (hazmat cat A). MMSI: 271040008.

Date/timePositionNaut miles runAvg speedWind from/ knotsBaromVisibWave heightAir tempDewpointWater temp
2014-Jul-26 11:16N 40°44' E 029°42'912.1
2014-Jul-26 10:31N 40°45' E 029°31'1111.3
2014-Jul-26 09:33N 40°44' E 029°16'1413.7
2014-Jul-26 08:33N 40°49' E 028°59'312 9.5
2014-Jul-24 23:33N 43°33' E 034°57'4715.8
2014-Jul-24 20:34N 43°53' E 035°57'3416.0
2014-Jul-24 18:27N 44°09' E 036°38'60 1.4
2014-Jul-23 00:15N 44°39' E 037°51'4812.8
2014-Jul-22 20:30N 44°12' E 036°55'1515.0
2014-Jul-22 19:31N 44°05' E 036°37'1414.8
2014-Jul-22 18:33N 43°59' E 036°20'1514.6
2014-Jul-22 17:33N 43°52' E 036°01'1514.7
2014-Jul-22 16:33N 43°45' E 035°43'1514.7
2014-Jul-22 15:33N 43°39' E 035°26'1514.7
2014-Jul-22 14:33N 43°32' E 035°07'1514.8
2014-Jul-22 13:33N 43°25' E 034°49'1515.0
2014-Jul-22 12:33N 43°18' E 034°31'1515.0
2014-Jul-22 11:33N 43°12' E 034°13'  
2014-Jul-19 11:28N 40°25' E 029°05'0 0.0
2014-Jul-19 10:22N 40°25' E 029°05'51 2.0
2014-Jul-18 09:05N 41°16' E 029°09'4 7.6
2014-Jul-18 08:33N 41°19' E 029°12'1 0.7
2014-Jul-18 07:33N 41°20' E 029°12'273 9.6
2014-Jul-17 03:13N 43°26' E 034°40'812.7
2014-Jul-17 02:34N 43°30' E 034°50'1312.7
2014-Jul-17 01:32N 43°36' E 035°06'1212.6
2014-Jul-17 00:33N 43°42' E 035°21'1312.8
2014-Jul-16 23:33N 43°48' E 035°37'1312.8
2014-Jul-16 22:33N 43°53' E 035°53'1313.1
2014-Jul-16 21:34N 43°59' E 036°09'1912.9
2014-Jul-16 20:08N 44°07' E 036°32'712.7
2014-Jul-16 19:33N 44°10' E 036°41'1912.8
2014-Jul-16 18:04N 44°19' E 037°05'713.1
2014-Jul-16 17:33N 44°22' E 037°13'1313.2
2014-Jul-16 16:33N 44°28' E 037°29'1313.1
2014-Jul-16 15:33N 44°34' E 037°45'  
Track history (hours):
 
Tides and Currents Weather Stations Pressure Air Temp Water Temp Dewpoint Dewpoint Depression Visibility Wind Speed Wind Dir Waves Ship Positions

Bernard A

Last reported at 2014-Jul-26 11:16 UTC. Time now 2014-Jul-28 20:32 UTC.
Position N 40°44' E 029°42'.

Length 184 m; draft 8.8 m.

Type: Ship (hazmat cat A). MMSI: 271040008.

Date/timePositionNaut miles runAvg speedWind from/ knotsBaromVisibWave heightAir tempDewpointWater temp
2014-Jul-26 11:16N 40°44' E 029°42'912.1
2014-Jul-26 10:31N 40°45' E 029°31'1111.3
2014-Jul-26 09:33N 40°44' E 029°16'1413.7
2014-Jul-26 08:33N 40°49' E 028°59'312 9.5
2014-Jul-24 23:33N 43°33' E 034°57'4715.8
2014-Jul-24 20:34N 43°53' E 035°57'3416.0
2014-Jul-24 18:27N 44°09' E 036°38'60 1.4
2014-Jul-23 00:15N 44°39' E 037°51'4812.8
2014-Jul-22 20:30N 44°12' E 036°55'1515.0
2014-Jul-22 19:31N 44°05' E 036°37'1414.8
2014-Jul-22 18:33N 43°59' E 036°20'1514.6
2014-Jul-22 17:33N 43°52' E 036°01'1514.7
2014-Jul-22 16:33N 43°45' E 035°43'1514.7
2014-Jul-22 15:33N 43°39' E 035°26'1514.7
2014-Jul-22 14:33N 43°32' E 035°07'1514.8
2014-Jul-22 13:33N 43°25' E 034°49'1515.0
2014-Jul-22 12:33N 43°18' E 034°31'1515.0
2014-Jul-22 11:33N 43°12' E 034°13'  
2014-Jul-19 11:28N 40°25' E 029°05'0 0.0
2014-Jul-19 10:22N 40°25' E 029°05'51 2.0
2014-Jul-18 09:05N 41°16' E 029°09'4 7.6
2014-Jul-18 08:33N 41°19' E 029°12'1 0.7
2014-Jul-18 07:33N 41°20' E 029°12'273 9.6
2014-Jul-17 03:13N 43°26' E 034°40'812.7
2014-Jul-17 02:34N 43°30' E 034°50'1312.7
2014-Jul-17 01:32N 43°36' E 035°06'1212.6
2014-Jul-17 00:33N 43°42' E 035°21'1312.8
2014-Jul-16 23:33N 43°48' E 035°37'1312.8
2014-Jul-16 22:33N 43°53' E 035°53'1313.1
2014-Jul-16 21:34N 43°59' E 036°09'1912.9
2014-Jul-16 20:08N 44°07' E 036°32'712.7
2014-Jul-16 19:33N 44°10' E 036°41'1912.8
2014-Jul-16 18:04N 44°19' E 037°05'713.1
2014-Jul-16 17:33N 44°22' E 037°13'1313.2
2014-Jul-16 16:33N 44°28' E 037°29'1313.1
2014-Jul-16 15:33N 44°34' E 037°45'  

Dump ship's entire track history